TimeMDT,TemperatureF,Dew PointF,Humidity,Sea Level PressureIn,VisibilityMPH,Wind Direction,Wind SpeedMPH,Gust SpeedMPH,PrecipitationIn,Events,Conditions,WindDirDegrees,DateUTC
1:35 AM,26.6,24.8,93,30.41,10.0,NW,21.9,-,N/A,,Overcast,310,2012-10-04 07:35:00
1:55 AM,26.6,24.8,93,30.41,10.0,NW,19.6,-,N/A,,Overcast,310,2012-10-04 07:55:00
2:15 AM,26.6,24.8,93,30.41,10.0,NW,17.3,-,N/A,,Overcast,310,2012-10-04 08:15:00
2:35 AM,26.6,24.8,93,30.41,10.0,NW,16.1,-,N/A,,Overcast,320,2012-10-04 08:35:00
2:55 AM,26.6,24.8,93,30.41,10.0,NW,15.0,-,N/A,,Overcast,310,2012-10-04 08:55:00
3:15 AM,26.6,24.8,93,30.40,10.0,NW,13.8,-,N/A,,Overcast,320,2012-10-04 09:15:00
3:35 AM,24.8,24.8,100,30.40,10.0,NW,12.7,-,N/A,,Overcast,320,2012-10-04 09:35:00
3:55 AM,26.6,24.8,93,30.39,10.0,NW,11.5,-,N/A,,Overcast,320,2012-10-04 09:55:00
4:15 AM,26.6,23.0,86,30.38,10.0,NW,10.4,-,N/A,,Overcast,320,2012-10-04 10:15:00
4:35 AM,26.6,23.0,86,30.38,10.0,NNW,6.9,-,N/A,,Overcast,330,2012-10-04 10:35:00
4:55 AM,26.6,23.0,86,30.38,10.0,NNW,5.8,-,N/A,,Overcast,330,2012-10-04 10:55:00
5:15 AM,26.6,23.0,86,30.38,10.0,Calm,Calm,-,N/A,,Overcast,0,2012-10-04 11:15:00
5:35 AM,26.6,21.2,80,30.38,10.0,Calm,Calm,-,N/A,,Overcast,0,2012-10-04 11:35:00
5:55 AM,28.4,21.2,74,30.38,10.0,SE,4.6,-,N/A,,Overcast,140,2012-10-04 11:55:00
6:15 AM,26.6,23.0,86,30.37,10.0,ESE,8.1,-,N/A,,Overcast,120,2012-10-04 12:15:00
6:35 AM,26.6,23.0,86,30.36,10.0,SE,6.9,-,N/A,,Overcast,130,2012-10-04 12:35:00
6:55 AM,26.6,23.0,86,30.37,10.0,SE,8.1,-,N/A,,Overcast,130,2012-10-04 12:55:00
7:15 AM,26.6,23.0,86,30.36,10.0,SE,10.4,-,N/A,,Overcast,130,2012-10-04 13:15:00
7:35 AM,26.6,23.0,86,30.36,10.0,SE,11.5,-,N/A,,Overcast,130,2012-10-04 13:35:00
7:55 AM,26.6,23.0,86,30.36,10.0,SE,12.7,-,N/A,,Overcast,140,2012-10-04 13:55:00
8:15 AM,26.6,24.8,93,30.36,10.0,SE,12.7,-,N/A,,Overcast,140,2012-10-04 14:15:00
8:35 AM,26.6,23.0,86,30.36,10.0,SE,16.1,-,N/A,,Overcast,130,2012-10-04 14:35:00
8:55 AM,28.4,26.6,93,30.36,10.0,SE,15.0,-,N/A,,Overcast,130,2012-10-04 14:55:00
9:15 AM,28.4,26.6,93,30.36,10.0,SE,13.8,-,N/A,,Overcast,130,2012-10-04 15:15:00
9:35 AM,28.4,26.6,93,30.36,10.0,ESE,11.5,-,N/A,,Overcast,120,2012-10-04 15:35:00
10:15 AM,30.2,26.6,86,30.35,10.0,SE,10.4,-,N/A,,Overcast,140,2012-10-04 16:15:00
10:35 AM,30.2,26.6,86,30.35,10.0,SE,11.5,17.3,N/A,,Overcast,140,2012-10-04 16:35:00
10:55 AM,30.2,24.8,80,30.35,10.0,ESE,15.0,-,N/A,,Overcast,120,2012-10-04 16:55:00
11:15 AM,30.2,24.8,80,30.35,10.0,ESE,13.8,-,N/A,,Overcast,120,2012-10-04 17:15:00
11:35 AM,30.2,24.8,80,30.34,10.0,ESE,12.7,-,N/A,,Mostly Cloudy,120,2012-10-04 17:35:00
11:55 AM,32.0,23.0,69,30.34,10.0,SE,10.4,17.3,N/A,,Mostly Cloudy,130,2012-10-04 17:55:00
12:15 PM,32.0,24.8,75,30.34,10.0,ESE,11.5,-,N/A,,Overcast,120,2012-10-04 18:15:00
12:35 PM,32.0,23.0,69,30.34,10.0,SE,6.9,-,N/A,,Mostly Cloudy,140,2012-10-04 18:35:00
12:55 PM,33.8,23.0,65,30.33,10.0,ESE,4.6,17.3,N/A,,Mostly Cloudy,120,2012-10-04 18:55:00
1:15 PM,32.0,23.0,69,30.32,10.0,SE,9.2,-,N/A,,Mostly Cloudy,130,2012-10-04 19:15:00
1:35 PM,35.6,23.0,60,30.31,10.0,Calm,Calm,-,N/A,,Mostly Cloudy,0,2012-10-04 19:35:00
1:55 PM,33.8,21.2,60,30.30,10.0,ESE,10.4,17.3,N/A,,Scattered Clouds,110,2012-10-04 19:55:00
2:15 PM,35.6,21.2,56,30.29,10.0,SE,11.5,21.9,N/A,,Mostly Cloudy,140,2012-10-04 20:15:00
2:35 PM,35.6,21.2,56,30.29,10.0,SE,12.7,17.3,N/A,,Scattered Clouds,130,2012-10-04 20:35:00
2:55 PM,37.4,19.4,48,30.28,10.0,SSE,9.2,17.3,N/A,,Scattered Clouds,150,2012-10-04 20:55:00
3:15 PM,35.6,19.4,52,30.28,10.0,SSE,6.9,17.3,N/A,,Clear,150,2012-10-04 21:15:00
3:35 PM,35.6,19.4,52,30.28,10.0,SSE,8.1,-,N/A,,Clear,150,2012-10-04 21:35:00
4:15 PM,35.6,19.4,52,30.28,10.0,SE,4.6,-,N/A,,Scattered Clouds,140,2012-10-04 22:15:00
4:35 PM,35.6,19.4,52,30.28,10.0,East,5.8,-,N/A,,Scattered Clouds,100,2012-10-04 22:35:00
4:55 PM,35.6,19.4,52,30.27,10.0,SE,5.8,-,N/A,,Clear,140,2012-10-04 22:55:00
5:15 PM,37.4,19.4,48,30.28,10.0,East,6.9,-,N/A,,Clear,90,2012-10-04 23:15:00
5:35 PM,35.6,19.4,52,30.28,10.0,Calm,Calm,-,N/A,,Clear,0,2012-10-04 23:35:00
5:55 PM,35.6,19.4,52,30.28,10.0,NNW,6.9,-,N/A,,Scattered Clouds,330,2012-10-04 23:55:00
6:15 PM,33.8,21.2,60,30.28,10.0,NNW,10.4,-,N/A,,Clear,340,2012-10-05 00:15:00
6:55 PM,32.0,21.2,64,30.28,10.0,NNW,17.3,-,N/A,,Clear,330,2012-10-05 00:55:00
7:15 PM,32.0,21.2,64,30.28,10.0,NNW,15.0,-,N/A,,Clear,340,2012-10-05 01:15:00
7:35 PM,32.0,21.2,64,30.28,10.0,NNW,16.1,-,N/A,,Mostly Cloudy,340,2012-10-05 01:35:00
8:15 PM,32.0,21.2,64,30.28,10.0,NNW,16.1,-,N/A,,Overcast,340,2012-10-05 02:15:00
8:35 PM,32.0,21.2,64,30.29,10.0,NNW,18.4,-,N/A,,Overcast,340,2012-10-05 02:35:00
9:15 PM,32.0,21.2,64,30.29,10.0,NNW,19.6,-,N/A,,Overcast,330,2012-10-05 03:15:00
9:35 PM,32.0,23.0,69,30.30,7.0,NNW,19.6,26.5,N/A,Snow,Light Snow,340,2012-10-05 03:35:00
9:55 PM,32.0,23.0,69,30.30,5.0,NW,25.3,-,N/A,Snow,Light Snow,320,2012-10-05 03:55:00
10:15 PM,30.2,26.6,86,30.30,2.0,NW,19.6,-,N/A,Snow,Light Snow,320,2012-10-05 04:15:00
10:35 PM,28.4,28.4,100,30.30,0.2,NW,20.7,-,N/A,Snow,Heavy Snow,310,2012-10-05 04:35:00
10:55 PM,28.4,28.4,100,30.30,0.2,NW,21.9,-,N/A,Snow,Heavy Snow,320,2012-10-05 04:55:00
11:15 PM,28.4,28.4,100,30.30,0.2,NW,18.4,-,N/A,Snow,Light Snow,320,2012-10-05 05:15:00
11:35 PM,28.4,28.4,100,30.29,-9999.0,NW,23.0,-,N/A,,Overcast,310,2012-10-05 05:35:00
11:55 PM,28.4,26.6,93,30.29,-9999.0,NW,19.6,-,N/A,,Overcast,320,2012-10-05 05:55:00